DAL180 KLAX-KSFO

Flight info

Callsign DAL180
Flight time 1h 16m
Altitude 38000
Route SUMMR2 STOKD SERFR SERFR4
Aircraft A359/H-SDE2E3GHIJ3J4J5LM1ORWXY/LB1D1

Departure

Time 2026-04-22 03:45
Airport Los Angeles International Airport (KLAX)

Arrival

Time 2026-04-22 05:02
Airport San Francisco International Airport (KSFO)
Time Latitude Longitude Altitude Speed Heading
2026-04-22 03:12 33.94506 -118.41454 101 ft 0 kts 263°
2026-04-22 03:24 33.94508 -118.41430 103 ft 4 kts 274°
2026-04-22 03:24 33.94504 -118.41401 101 ft 4 kts 294°
2026-04-22 03:24 33.94492 -118.41376 99 ft 4 kts 316°
2026-04-22 03:25 33.94473 -118.41358 102 ft 4 kts 335°
2026-04-22 03:25 33.94448 -118.41348 99 ft 4 kts 348°
2026-04-22 03:25 33.94427 -118.41343 102 ft 0 kts 353°
2026-04-22 03:32 33.94470 -118.41350 100 ft 14 kts 353°
2026-04-22 03:32 33.94605 -118.41370 103 ft 24 kts 352°
2026-04-22 03:32 33.94739 -118.41390 104 ft 0 kts 358°
2026-04-22 03:32 33.94747 -118.41390 104 ft 0 kts 359°
2026-04-22 03:39 33.94759 -118.41383 104 ft 7 kts 25°
2026-04-22 03:39 33.94783 -118.41338 105 ft 7 kts 73°
2026-04-22 03:39 33.94794 -118.41260 106 ft 13 kts 82°
2026-04-22 03:40 33.94807 -118.41143 106 ft 15 kts 82°
2026-04-22 03:40 33.94823 -118.41004 107 ft 18 kts 82°
2026-04-22 03:40 33.94839 -118.40844 106 ft 21 kts 83°
2026-04-22 03:40 33.94851 -118.40727 106 ft 22 kts 83°
2026-04-22 03:41 33.94872 -118.40532 106 ft 25 kts 82°
2026-04-22 03:41 33.94891 -118.40320 106 ft 26 kts 83°
2026-04-22 03:41 33.94916 -118.40091 105 ft 28 kts 83°
2026-04-22 03:41 33.94927 -118.39990 105 ft 0 kts 81°
2026-04-22 03:43 33.94928 -118.39981 106 ft 3 kts 79°
2026-04-22 03:43 33.94972 -118.39921 109 ft 11 kts 17°
2026-04-22 03:44 33.95022 -118.39930 112 ft 4 kts 327°
2026-04-22 03:44 33.95035 -118.40014 112 ft 23 kts 266°
2026-04-22 03:44 33.94992 -118.40438 114 ft 87 kts 263°
2026-04-22 03:44 33.94889 -118.41438 111 ft 150 kts 263°
2026-04-22 03:45 33.94747 -118.42770 670 ft 160 kts 261°
2026-04-22 03:45 33.94579 -118.44110 1454 ft 163 kts 262°
2026-04-22 03:45 33.94370 -118.45473 2247 ft 167 kts 260°
2026-04-22 03:45 33.94137 -118.46848 3040 ft 168 kts 259°
2026-04-22 03:46 33.93884 -118.48224 3835 ft 168 kts 258°
2026-04-22 03:46 33.93606 -118.49673 4312 ft 185 kts 257°
2026-04-22 03:46 33.93255 -118.51253 4758 ft 208 kts 254°
2026-04-22 03:46 33.92870 -118.53054 5098 ft 235 kts 258°
2026-04-22 03:47 33.92568 -118.55048 5769 ft 247 kts 261°
2026-04-22 03:47 33.92328 -118.57117 6604 ft 252 kts 262°
2026-04-22 03:47 33.92119 -118.59219 7436 ft 254 kts 263°
2026-04-22 03:47 33.91925 -118.61331 8319 ft 254 kts 263°
2026-04-22 03:48 33.91792 -118.63452 9149 ft 255 kts 266°
2026-04-22 03:48 33.91765 -118.65599 9968 ft 257 kts 268°
2026-04-22 03:48 33.91758 -118.67748 10533 ft 265 kts 268°
2026-04-22 03:48 33.91749 -118.70036 10849 ft 282 kts 268°
2026-04-22 03:49 33.91739 -118.72468 11157 ft 298 kts 268°
2026-04-22 03:49 33.91728 -118.75028 11494 ft 312 kts 268°
2026-04-22 03:49 33.91718 -118.77670 12034 ft 318 kts 268°
2026-04-22 03:49 33.91708 -118.80338 12695 ft 319 kts 268°
2026-04-22 03:50 33.91697 -118.83015 13348 ft 321 kts 268°
2026-04-22 03:50 33.91716 -118.85710 13974 ft 323 kts 270°
2026-04-22 03:50 33.91810 -118.88419 14490 ft 325 kts 270°
2026-04-22 03:50 33.91909 -118.91153 14958 ft 328 kts 270°
2026-04-22 03:51 33.92001 -118.93905 15411 ft 331 kts 270°
2026-04-22 03:51 33.92088 -118.96651 16182 ft 322 kts 270°
2026-04-22 03:51 33.92204 -118.99301 17070 ft 312 kts 273°
2026-04-22 03:51 33.92627 -119.01835 17877 ft 308 kts 284°
2026-04-22 03:52 33.93509 -119.04229 18191 ft 321 kts 295°
2026-04-22 03:52 33.94698 -119.06559 18379 ft 331 kts 297°
2026-04-22 03:52 33.95948 -119.08926 18559 ft 340 kts 297°
2026-04-22 03:52 33.97210 -119.11336 18708 ft 348 kts 297°
2026-04-22 03:53 33.98508 -119.13833 18930 ft 354 kts 297°
2026-04-22 03:53 33.99853 -119.16334 19232 ft 358 kts 300°
2026-04-22 03:53 34.01449 -119.18671 19571 ft 365 kts 308°
2026-04-22 03:53 34.03377 -119.20704 19932 ft 372 kts 316°
2026-04-22 03:54 34.05487 -119.22541 20272 ft 375 kts 318°
2026-04-22 03:54 34.07625 -119.24356 20610 ft 376 kts 318°
2026-04-22 03:54 34.09763 -119.26180 20926 ft 377 kts 317°
2026-04-22 03:54 34.11911 -119.28018 21252 ft 378 kts 317°
2026-04-22 03:55 34.14059 -119.29862 21562 ft 380 kts 317°
2026-04-22 03:55 34.16214 -119.31716 21855 ft 381 kts 317°
2026-04-22 03:55 34.18374 -119.33577 22178 ft 382 kts 317°
2026-04-22 03:55 34.20538 -119.35442 22477 ft 383 kts 317°
2026-04-22 03:56 34.22711 -119.37317 22761 ft 384 kts 317°
2026-04-22 03:56 34.24889 -119.39198 23037 ft 385 kts 317°
2026-04-22 03:56 34.27051 -119.41066 23295 ft 386 kts 317°
2026-04-22 03:56 34.29241 -119.42960 23555 ft 388 kts 317°
2026-04-22 03:57 34.31438 -119.44860 23804 ft 389 kts 317°
2026-04-22 03:57 34.33641 -119.46768 23990 ft 390 kts 317°
2026-04-22 03:57 34.35849 -119.48681 24192 ft 391 kts 317°
2026-04-22 03:57 34.38062 -119.50599 24389 ft 392 kts 317°
2026-04-22 03:58 34.40265 -119.52549 24579 ft 391 kts 315°
2026-04-22 03:58 34.42302 -119.54709 24791 ft 387 kts 309°
2026-04-22 03:58 34.44206 -119.57014 24971 ft 387 kts 308°
2026-04-22 03:58 34.46072 -119.59314 25171 ft 387 kts 308°
2026-04-22 03:59 34.47966 -119.61648 25365 ft 388 kts 308°
2026-04-22 03:59 34.49864 -119.63983 25534 ft 389 kts 308°
2026-04-22 03:59 34.51769 -119.66328 25716 ft 390 kts 308°
2026-04-22 03:59 34.53668 -119.68671 25907 ft 390 kts 308°
2026-04-22 04:00 34.55577 -119.71028 26076 ft 391 kts 308°
2026-04-22 04:00 34.57487 -119.73384 26241 ft 392 kts 308°
2026-04-22 04:00 34.59401 -119.75749 26446 ft 393 kts 308°
2026-04-22 04:00 34.61318 -119.78119 26602 ft 394 kts 308°
2026-04-22 04:01 34.63236 -119.80492 26769 ft 394 kts 308°
2026-04-22 04:01 34.65159 -119.82869 26959 ft 395 kts 308°
2026-04-22 04:01 34.67083 -119.85250 27135 ft 395 kts 308°
2026-04-22 04:01 34.69010 -119.87638 27310 ft 396 kts 308°
2026-04-22 04:02 34.70942 -119.90036 27443 ft 397 kts 308°
2026-04-22 04:02 34.72851 -119.92406 27616 ft 398 kts 308°
2026-04-22 04:02 34.74788 -119.94810 27762 ft 398 kts 308°
2026-04-22 04:02 34.76727 -119.97218 27881 ft 399 kts 308°
2026-04-22 04:03 34.78668 -119.99631 28034 ft 398 kts 308°
2026-04-22 04:03 34.80606 -120.02041 28144 ft 399 kts 308°
2026-04-22 04:03 34.82550 -120.04463 28321 ft 399 kts 308°
2026-04-22 04:03 34.84499 -120.06888 28447 ft 400 kts 308°
2026-04-22 04:04 34.86442 -120.09313 28598 ft 401 kts 308°
2026-04-22 04:04 34.88394 -120.11748 28730 ft 402 kts 308°
2026-04-22 04:04 34.90353 -120.14196 28857 ft 404 kts 308°
2026-04-22 04:04 34.92314 -120.16649 29023 ft 404 kts 308°
2026-04-22 04:05 34.94280 -120.19101 29192 ft 404 kts 308°
2026-04-22 04:05 34.96217 -120.21527 29311 ft 405 kts 308°
2026-04-22 04:05 34.98210 -120.24023 29434 ft 406 kts 308°
2026-04-22 04:05 35.00154 -120.26457 29559 ft 406 kts 308°
2026-04-22 04:06 35.02134 -120.28932 29683 ft 407 kts 308°
2026-04-22 04:06 35.04106 -120.31410 29796 ft 408 kts 308°
2026-04-22 04:06 35.06080 -120.33892 29922 ft 408 kts 308°
2026-04-22 04:06 35.08067 -120.36390 30070 ft 409 kts 308°
2026-04-22 04:07 35.10067 -120.38870 30183 ft 411 kts 310°
2026-04-22 04:07 35.12182 -120.41236 30269 ft 414 kts 311°
2026-04-22 04:07 35.16474 -120.45945 30447 ft 415 kts 311°
2026-04-22 04:08 35.20723 -120.50677 30617 ft 416 kts 311°
2026-04-22 04:08 35.25001 -120.55470 30739 ft 418 kts 310°
2026-04-22 04:09 35.27143 -120.57875 30876 ft 418 kts 310°
2026-04-22 04:09 35.29289 -120.60288 30977 ft 419 kts 310°
2026-04-22 04:09 35.33593 -120.65138 31155 ft 421 kts 310°
2026-04-22 04:10 35.37910 -120.70005 31316 ft 422 kts 310°
2026-04-22 04:10 35.42215 -120.74868 31498 ft 424 kts 310°
2026-04-22 04:11 35.46551 -120.79774 31685 ft 424 kts 310°
2026-04-22 04:11 35.51159 -120.84431 31753 ft 432 kts 315°
2026-04-22 04:12 35.55984 -120.88896 31823 ft 435 kts 315°
2026-04-22 04:12 35.60826 -120.93388 31910 ft 437 kts 315°
2026-04-22 04:13 35.65657 -120.97878 31982 ft 439 kts 315°
2026-04-22 04:13 35.70538 -121.02425 32030 ft 441 kts 315°
2026-04-22 04:14 35.75440 -121.06999 32058 ft 443 kts 315°
2026-04-22 04:14 35.77909 -121.09307 31919 ft 447 kts 315°
2026-04-22 04:14 35.80390 -121.11628 31832 ft 449 kts 315°
2026-04-22 04:15 35.85376 -121.16290 31891 ft 450 kts 315°
2026-04-22 04:15 35.90370 -121.20971 31946 ft 450 kts 315°
2026-04-22 04:16 35.97861 -121.28006 32009 ft 452 kts 315°
2026-04-22 04:17 36.02837 -121.32687 32121 ft 451 kts 315°
2026-04-22 04:17 36.07901 -121.37291 32145 ft 457 kts 319°
2026-04-22 04:18 36.13301 -121.41516 32144 ft 460 kts 320°
2026-04-22 04:18 36.18732 -121.45742 32140 ft 461 kts 320°
2026-04-22 04:19 36.24139 -121.49963 32130 ft 462 kts 320°
2026-04-22 04:19 36.29583 -121.54229 31981 ft 466 kts 320°
2026-04-22 04:19 36.32344 -121.56396 31630 ft 473 kts 320°
2026-04-22 04:20 36.35143 -121.58595 31314 ft 478 kts 320°
2026-04-22 04:20 36.37967 -121.60813 30920 ft 483 kts 320°
2026-04-22 04:20 36.40811 -121.63050 30613 ft 485 kts 320°
2026-04-22 04:20 36.43662 -121.65289 30367 ft 485 kts 320°
2026-04-22 04:21 36.46520 -121.67536 30098 ft 485 kts 320°
2026-04-22 04:21 36.49377 -121.69787 29882 ft 485 kts 320°
2026-04-22 04:21 36.52225 -121.72036 29735 ft 484 kts 320°
2026-04-22 04:22 36.57898 -121.76518 29529 ft 482 kts 320°
2026-04-22 04:22 36.60687 -121.78726 29418 ft 483 kts 320°
2026-04-22 04:22 36.63518 -121.80968 29351 ft 482 kts 320°
2026-04-22 04:23 36.69157 -121.85440 29353 ft 480 kts 320°
2026-04-22 04:23 36.71974 -121.87653 29242 ft 474 kts 321°
2026-04-22 04:23 36.74927 -121.89448 28873 ft 472 kts 332°
2026-04-22 04:23 36.78082 -121.90547 28560 ft 468 kts 338°
2026-04-22 04:24 36.81226 -121.91413 28236 ft 458 kts 338°
2026-04-22 04:24 36.84323 -121.92269 27693 ft 452 kts 337°
2026-04-22 04:24 36.87344 -121.93269 27166 ft 445 kts 335°
2026-04-22 04:24 36.90317 -121.94334 26793 ft 444 kts 334°
2026-04-22 04:25 36.93256 -121.95396 26398 ft 437 kts 334°
2026-04-22 04:25 36.96145 -121.96447 25693 ft 439 kts 334°
2026-04-22 04:25 36.99093 -121.97527 24930 ft 443 kts 334°
2026-04-22 04:25 37.02070 -121.98617 24179 ft 447 kts 335°
2026-04-22 04:26 37.05063 -121.99712 23372 ft 449 kts 335°
2026-04-22 04:26 37.08075 -122.00815 22494 ft 452 kts 335°
2026-04-22 04:26 37.11103 -122.01926 21636 ft 454 kts 336°
2026-04-22 04:26 37.14143 -122.03043 20791 ft 456 kts 337°
2026-04-22 04:27 37.17186 -122.04159 20100 ft 456 kts 338°
2026-04-22 04:27 37.20239 -122.05276 19432 ft 455 kts 338°
2026-04-22 04:27 37.23274 -122.06393 18815 ft 454 kts 339°
2026-04-22 04:27 37.26294 -122.07542 18217 ft 452 kts 338°
2026-04-22 04:28 37.29254 -122.08688 17835 ft 446 kts 339°
2026-04-22 04:28 37.31242 -122.09456 17649 ft 440 kts 339°
2026-04-22 04:28 37.35079 -122.10939 17371 ft 430 kts 339°
2026-04-22 04:28 37.37926 -122.12037 17190 ft 424 kts 339°
2026-04-22 04:29 37.39827 -122.12745 17087 ft 420 kts 340°
2026-04-22 04:29 37.42601 -122.13685 16916 ft 416 kts 341°
2026-04-22 04:29 37.45379 -122.14610 16762 ft 412 kts 341°
2026-04-22 04:29 37.48180 -122.15473 16305 ft 418 kts 347°
2026-04-22 04:30 37.51133 -122.15585 15547 ft 434 kts
2026-04-22 04:30 37.54083 -122.14610 14909 ft 444 kts 21°
2026-04-22 04:30 37.56920 -122.13062 14483 ft 443 kts 23°
2026-04-22 04:30 37.59741 -122.11516 14155 ft 441 kts 23°
2026-04-22 04:31 37.62555 -122.09975 13822 ft 439 kts 23°
2026-04-22 04:31 37.65357 -122.08440 13482 ft 437 kts 23°
2026-04-22 04:31 37.68143 -122.06914 13171 ft 435 kts 23°
2026-04-22 04:31 37.70912 -122.05397 12920 ft 432 kts 23°
2026-04-22 04:32 37.73652 -122.03848 12646 ft 430 kts 26°
2026-04-22 04:32 37.76103 -122.01709 12354 ft 428 kts 44°
2026-04-22 04:32 37.77919 -121.98830 12130 ft 423 kts 62°
2026-04-22 04:32 37.78995 -121.95373 11891 ft 415 kts 81°
2026-04-22 04:33 37.79192 -121.91782 11679 ft 406 kts 98°
2026-04-22 04:33 37.78591 -121.88325 11489 ft 399 kts 111°
2026-04-22 04:33 37.77711 -121.85016 11296 ft 397 kts 112°
2026-04-22 04:33 37.76821 -121.81769 11131 ft 395 kts 113°
2026-04-22 04:34 37.75919 -121.78491 10977 ft 394 kts 113°
2026-04-22 04:34 37.75020 -121.75223 10827 ft 393 kts 113°
2026-04-22 04:34 37.74122 -121.71963 10713 ft 392 kts 113°
2026-04-22 04:34 37.73224 -121.68708 10624 ft 392 kts 113°
2026-04-22 04:35 37.72327 -121.65457 10626 ft 390 kts 112°
2026-04-22 04:35 37.71539 -121.62418 11839 ft 353 kts 111°
2026-04-22 04:35 37.70839 -121.59519 12592 ft 337 kts 111°
2026-04-22 04:35 37.70109 -121.56774 13280 ft 322 kts 119°
2026-04-22 04:36 37.68883 -121.54505 13467 ft 316 kts 140°
2026-04-22 04:36 37.67046 -121.52988 13585 ft 318 kts 161°
2026-04-22 04:36 37.65052 -121.52159 13388 ft 289 kts 168°
2026-04-22 04:36 37.63146 -121.51990 13020 ft 265 kts 191°
2026-04-22 04:37 37.61503 -121.52806 12679 ft 246 kts 209°
2026-04-22 04:37 37.60117 -121.53946 12406 ft 230 kts 216°
2026-04-22 04:37 37.59016 -121.55326 12084 ft 219 kts 230°
2026-04-22 04:37 37.58322 -121.57016 11635 ft 219 kts 250°
2026-04-22 04:38 37.58048 -121.58906 11148 ft 219 kts 258°
2026-04-22 04:38 37.57887 -121.60805 10625 ft 217 kts 259°
2026-04-22 04:38 37.57741 -121.62715 10061 ft 221 kts 259°
2026-04-22 04:38 37.57598 -121.64632 9515 ft 219 kts 259°
2026-04-22 04:39 37.57455 -121.66550 8748 ft 220 kts 263°
2026-04-22 04:39 37.57307 -121.68484 8363 ft 226 kts 260°
2026-04-22 04:39 37.57174 -121.70410 8131 ft 214 kts 260°
2026-04-22 04:39 37.57036 -121.72278 8100 ft 214 kts 259°
2026-04-22 04:40 37.56896 -121.74141 8086 ft 214 kts 259°
2026-04-22 04:40 37.56758 -121.76014 8093 ft 214 kts 260°
2026-04-22 04:40 37.56616 -121.77888 8098 ft 214 kts 259°
2026-04-22 04:40 37.56469 -121.79750 8101 ft 214 kts 259°
2026-04-22 04:41 37.56330 -121.81613 8100 ft 213 kts 259°
2026-04-22 04:41 37.56192 -121.83473 8096 ft 213 kts 259°
2026-04-22 04:41 37.56049 -121.85333 8093 ft 213 kts 259°
2026-04-22 04:41 37.55906 -121.87201 8103 ft 213 kts 259°
2026-04-22 04:42 37.55775 -121.88999 7919 ft 207 kts 259°
2026-04-22 04:42 37.55636 -121.90833 7446 ft 213 kts 259°
2026-04-22 04:42 37.55493 -121.92700 7028 ft 215 kts 259°
2026-04-22 04:42 37.55348 -121.94578 6682 ft 215 kts 259°
2026-04-22 04:43 37.55205 -121.96457 6310 ft 214 kts 260°
2026-04-22 04:43 37.55063 -121.98320 5938 ft 213 kts 260°
2026-04-22 04:43 37.54920 -122.00177 5570 ft 212 kts 260°
2026-04-22 04:43 37.54779 -122.02017 5213 ft 211 kts 260°
2026-04-22 04:44 37.54637 -122.03845 4851 ft 210 kts 261°
2026-04-22 04:44 37.54497 -122.05669 4537 ft 206 kts 261°
2026-04-22 04:44 37.54360 -122.07447 4343 ft 203 kts 261°
2026-04-22 04:44 37.54230 -122.09216 4191 ft 203 kts 262°
2026-04-22 04:45 37.54155 -122.10990 4070 ft 203 kts 265°
2026-04-22 04:45 37.54165 -122.12770 3921 ft 204 kts 269°
2026-04-22 04:45 37.54265 -122.14547 3626 ft 198 kts 272°
2026-04-22 04:45 37.54450 -122.16216 3313 ft 188 kts 276°
2026-04-22 04:46 37.54699 -122.17785 3133 ft 179 kts 279°
2026-04-22 04:46 37.55007 -122.19299 3132 ft 172 kts 282°
2026-04-22 04:46 37.55346 -122.20644 3117 ft 151 kts 284°
2026-04-22 04:46 37.55654 -122.21871 3130 ft 146 kts 285°
2026-04-22 04:47 37.56074 -122.23035 3139 ft 149 kts 292°
2026-04-22 04:47 37.56565 -122.24219 2928 ft 155 kts 293°
2026-04-22 04:47 37.57077 -122.25404 2656 ft 152 kts 295°
2026-04-22 04:47 37.57582 -122.26545 2345 ft 147 kts 295°
2026-04-22 04:48 37.58069 -122.27654 2055 ft 143 kts 295°
2026-04-22 04:48 37.58532 -122.28758 1710 ft 142 kts 284°
2026-04-22 04:48 37.58878 -122.29930 1393 ft 144 kts 302°
2026-04-22 04:48 37.59407 -122.31065 921 ft 152 kts 291°
2026-04-22 04:49 37.59852 -122.32241 601 ft 144 kts 295°
2026-04-22 04:49 37.60323 -122.33298 384 ft 137 kts 298°
2026-04-22 04:49 37.60761 -122.34337 260 ft 133 kts 292°
2026-04-22 04:49 37.61213 -122.35400 142 ft 143 kts 298°
2026-04-22 04:50 37.61690 -122.36524 31 ft 144 kts 295°
2026-04-22 04:50 37.62126 -122.37565 303 ft 135 kts 296°
2026-04-22 04:50 37.62590 -122.38652 682 ft 145 kts 297°
2026-04-22 04:50 37.63092 -122.39774 1122 ft 152 kts 298°
2026-04-22 04:51 37.63644 -122.40932 1526 ft 157 kts 299°
2026-04-22 04:51 37.64244 -122.42104 1949 ft 160 kts 300°
2026-04-22 04:51 37.64921 -122.43338 2437 ft 181 kts 301°
2026-04-22 04:51 37.65810 -122.44534 2951 ft 190 kts 315°
2026-04-22 04:52 37.67015 -122.45333 3118 ft 210 kts 344°
2026-04-22 04:52 37.68509 -122.45217 3123 ft 221 kts 17°
2026-04-22 04:52 37.69857 -122.44335 3118 ft 221 kts 33°
2026-04-22 04:52 37.71124 -122.43231 3112 ft 222 kts 36°
2026-04-22 04:53 37.72362 -122.42065 3103 ft 222 kts 40°
2026-04-22 04:53 37.73210 -122.40459 3109 ft 220 kts 74°
2026-04-22 04:53 37.73273 -122.38585 3121 ft 213 kts 105°
2026-04-22 04:53 37.72732 -122.36886 3113 ft 206 kts 127°
2026-04-22 04:54 37.71926 -122.35399 3110 ft 206 kts 127°
2026-04-22 04:54 37.71141 -122.33880 3110 ft 206 kts 127°
2026-04-22 04:54 37.70365 -122.32360 3109 ft 206 kts 127°
2026-04-22 04:54 37.69618 -122.30814 3112 ft 208 kts 122°
2026-04-22 04:55 37.69000 -122.29163 3099 ft 208 kts 118°
2026-04-22 04:55 37.68425 -122.27522 2935 ft 199 kts 118°
2026-04-22 04:55 37.67880 -122.25955 2692 ft 194 kts 118°
2026-04-22 04:55 37.67324 -122.24378 2220 ft 198 kts 118°
2026-04-22 04:56 37.66767 -122.22824 1943 ft 188 kts 118°
2026-04-22 04:56 37.66255 -122.21398 1896 ft 167 kts 118°
2026-04-22 04:56 37.65689 -122.20243 1892 ft 145 kts 136°
2026-04-22 04:56 37.64910 -122.19542 1901 ft 136 kts 161°
2026-04-22 04:57 37.63986 -122.19489 1926 ft 136 kts 199°
2026-04-22 04:57 37.63175 -122.20107 1926 ft 137 kts 217°
2026-04-22 04:57 37.62423 -122.20817 1917 ft 137 kts 216°
2026-04-22 04:57 37.61655 -122.21531 1919 ft 136 kts 216°
2026-04-22 04:58 37.60891 -122.22240 1924 ft 137 kts 217°
2026-04-22 04:58 37.60121 -122.22957 1945 ft 138 kts 217°
2026-04-22 04:58 37.59349 -122.23678 1947 ft 138 kts 217°
2026-04-22 04:58 37.58654 -122.24516 1942 ft 139 kts 230°
2026-04-22 04:59 37.58188 -122.25577 1944 ft 140 kts 248°
2026-04-22 04:59 37.58015 -122.26783 1936 ft 142 kts 266°
2026-04-22 04:59 37.58161 -122.28027 1929 ft 145 kts 277°
2026-04-22 04:59 37.58540 -122.29225 1633 ft 149 kts 299°
2026-04-22 05:00 37.59137 -122.30281 1329 ft 147 kts 303°
2026-04-22 05:00 37.59648 -122.31405 777 ft 153 kts 290°
2026-04-22 05:00 37.60056 -122.32589 536 ft 142 kts 292°
2026-04-22 05:00 37.60511 -122.33687 377 ft 145 kts 293°
2026-04-22 05:01 37.60977 -122.34806 239 ft 144 kts 295°
2026-04-22 05:01 37.61438 -122.35923 62 ft 143 kts 294°
2026-04-22 05:01 37.61879 -122.36978 28 ft 120 kts 298°
2026-04-22 05:01 37.62192 -122.37720 28 ft 55 kts 298°
2026-04-22 05:02 37.62354 -122.38104 28 ft 31 kts 298°